Location: Newark
(11.2914°S, 14.4718°E)
Time: 14:32:52
(UTC+00:00)

A-11 Canister half - Visible Passes

Search period start: 17 September 2019 00:00
Search period end: 27 September 2019 00:00
Orbit: 1527 x 1682 km, 47.3° (Epoch: 16 September)

Date Brightness Start Highest point End Pass type
(mag) Time Alt. Az. Time Alt. Az. Time Alt. Az.
23 Sep 11.1 20:30:33 10° SSW 20:31:14 12° S 20:31:14 12° S visible
24 Sep 10.9 20:09:05 10° S 20:10:51 15° S 20:10:51 15° S visible
25 Sep 10.7 19:47:37 10° S 19:50:29 17° S 19:50:29 17° S visible
26 Sep 10.5 19:26:10 10° S 19:30:10 19° SSE 19:30:10 19° SSE visible
